Terminal Aerodrome Forecast
Issued by NWS Tampa Bay Area, FL

Home | Current Version | Previous Version | Text Only | Print | Product List | Glossary On
Versions: 1 2 3 4 5 6 7 8 9 10 11 12 13 14
124
FTUS42 KTBW 181733
TAFSRQ
TAF
KSRQ 181733Z 1818/1918 24005KT P6SM SCT040 SCT250
     FM182200 27008KT P6SM FEW050 SCT250
     FM190100 VRB03KT P6SM FEW050 SCT250
     FM190900 VRB03KT 5SM BR SCT250
     FM191400 16006KT P6SM SCT250=

USA.gov is the U.S. government's official web portal to all federal, state and local government web resources and services.